Tracking 29932 objects as of 4-Dec-2024
HD Live streaming from Space Station
objects crossing your sky now

STARLINK-31183

Track STARLINK-31183 now!
10-day predictions
STARLINK-31183 is classified as:


NORAD ID: 58747
Int'l Code: 2024-005V
Perigee: 565.4 km
Apogee: 567.1 km
Inclination: 43.0 °
Period: 95.8 minutes
Semi major axis: 6937 km
RCS: Unknown
Launch date: January 7, 2024
Source: United States (US)
Launch site: AIR FORCE EASTERN TEST RANGE (AFETR)
Your satellite tracking list
Your tracking list is empty




NASA's NSSDC Master Catalog

Two Line Element Set (TLE):
1 58747U 24005V   24337.93434412 -.00000060  00000-0  10631-4 0  9993
2 58747  43.0016 210.5107 0001201 266.4801  93.5904 15.02535960 51062
Source of the keplerian elements: AFSPC